{"data":{"norad_id":57699,"intl_designator":"2023-129B","name":"STARLINK-30347","alt_names":[],"object_type":"PAYLOAD","status":"ACTIVE","operator":null,"country":"US","launch_date":"2023-08-27","launch_site_code":"AFETR","launch_vehicle":null,"mission":null,"orbit_class":"UNKNOWN","rcs_meters":null,"size_class":null,"mass_kg":null,"dimensions":null,"purposes":["comms"],"wikipedia_slug":null,"has_3d_model":false,"image_url":null,"decayed_at":null,"tle_current":{"epoch":"2026-05-25T01:20:39.275232Z","epoch_age_seconds":64070,"freshness":"FRESH","line1":"1 57699U 23129B   26145.05601013 -.00003196  00000+0 -10672-3 0  9996","line2":"2 57699  43.0038  35.3923 0001082 267.4279  92.6449 15.27565002152497","mean_motion":15.27565002,"eccentricity":0.0001082,"inclination_deg":43.0038,"raan_deg":35.3923,"arg_perigee_deg":267.4279,"mean_anomaly_deg":92.6449,"bstar":-0.00010672,"rev_number":15249,"period_min":94.267674247227,"perigee_km":482.35162061977,"apogee_km":483.83639100943,"semimajor_km":6861.2310058146,"source":"CELESTRAK","updated_at":"2026-05-25T13:38:18.371068Z"}}}